Terminal Aerodrome Forecast
Issued by NWS Caribou, ME

Home | Current Version | Previous Version | Text Only | Print | Product List | Glossary On
Versions: 1 2 3 4 5 6 7 8 9 10 11 12 13 14 15 16 17 18 19 20 21
000
FTUS41 KCAR 311740
TAFCAR
TAF
KCAR 311740Z 3118/0118 01005KT P6SM OVC050
     FM011400 03010G20KT P6SM BKN025=

USA.gov is the U.S. government's official web portal to all federal, state and local government web resources and services.